カタログに戻る

STARLINK-5090

運用中通信VLEO
NORAD 56137·PAYLOAD·🇺🇸 United States

打ち上げ Mar 29, 2023 から Cape Canaveral Space Force Station

Loading…

次のパス (今後24時間)

TLE

最新Source: CelesTrak SupGP

元期: Sep 14, 2026, 21:38 UTC

1 56137C 23046AW  26257.90187500 -.00042248  00000+0 -15304-2 0  2572
2 56137  43.0003 158.3382 0001374 267.6961 270.1134 15.27595245    10

AllMySatでSTARLINK-5090をリアルタイム追跡

Download on the App Store